Time,TemperatureF,DewpointF,PressureIn,WindDirection,WindDirectionDegrees,WindSpeedMPH,WindSpeedGustMPH,Humidity,HourlyPrecipIn,Conditions,Clouds,dailyrainin,SoftwareType,DateUTC
2013-06-11 00:13:00,71.8,69.0,29.83,NNE,20,0.0,-999.0,91,-99.99,,,1.03,weatherlink.com 1.10,2013-06-11 04:13:00,
2013-06-11 00:28:00,71.6,69.0,29.83,SSE,161,0.0,-999.0,91,-99.99,,,1.03,weatherlink.com 1.10,2013-06-11 04:28:00,
2013-06-11 00:43:00,71.5,69.0,29.82,SE,137,0.0,-999.0,91,-99.99,,,1.03,weatherlink.com 1.10,2013-06-11 04:43:00,
2013-06-11 00:58:00,71.5,69.0,29.82,ESE,106,0.0,-999.0,92,-99.99,,,1.03,weatherlink.com 1.10,2013-06-11 04:58:00,
2013-06-11 01:13:00,71.5,69.0,29.81,SSE,168,0.0,-999.0,92,-99.99,,,0.00,weatherlink.com 1.10,2013-06-11 05:13:00,
2013-06-11 01:28:00,71.3,69.0,29.81,SSE,154,0.0,-999.0,92,-99.99,,,0.00,weatherlink.com 1.10,2013-06-11 05:28:00,
2013-06-11 01:43:00,71.3,69.0,29.81,SSE,160,0.0,-999.0,92,-99.99,,,0.00,weatherlink.com 1.10,2013-06-11 05:43:00,
2013-06-11 01:58:00,71.1,69.0,29.81,SE,143,3.0,-999.0,92,-99.99,,,0.00,weatherlink.com 1.10,2013-06-11 05:58:00,
2013-06-11 02:13:00,70.9,69.0,29.80,SSW,210,0.0,-999.0,92,-99.99,,,0.00,weatherlink.com 1.10,2013-06-11 06:13:00,
2013-06-11 02:28:00,70.8,68.0,29.79,SE,138,0.0,-999.0,92,-99.99,,,0.00,weatherlink.com 1.10,2013-06-11 06:28:00,
2013-06-11 02:43:00,70.6,68.0,29.79,East,97,0.0,-999.0,92,-99.99,,,0.00,weatherlink.com 1.10,2013-06-11 06:43:00,
2013-06-11 02:58:00,70.4,68.0,29.79,East,100,0.0,-999.0,92,-99.99,,,0.00,weatherlink.com 1.10,2013-06-11 06:58:00,
2013-06-11 03:13:00,70.4,68.0,29.79,ESE,107,0.0,-999.0,92,-99.99,,,0.00,weatherlink.com 1.10,2013-06-11 07:13:00,
2013-06-11 03:28:00,70.4,68.0,29.78,SSE,167,0.0,-999.0,92,-99.99,,,0.00,weatherlink.com 1.10,2013-06-11 07:28:00,
2013-06-11 03:43:00,70.4,68.0,29.79,SSE,151,7.0,-999.0,91,-99.99,,,0.00,weatherlink.com 1.10,2013-06-11 07:43:00,
2013-06-11 03:58:00,70.4,67.0,29.79,South,175,0.0,-999.0,90,-99.99,,,0.00,weatherlink.com 1.10,2013-06-11 07:58:00,
2013-06-11 04:13:00,70.4,67.0,29.80,ESE,102,0.0,-999.0,89,-99.99,,,0.00,weatherlink.com 1.10,2013-06-11 08:13:00,
2013-06-11 04:28:00,70.6,67.0,29.80,East,83,0.0,-999.0,89,-99.99,,,0.00,weatherlink.com 1.10,2013-06-11 08:28:00,
2013-06-11 04:43:00,70.6,67.0,29.80,SE,127,0.0,-999.0,89,-99.99,,,0.00,weatherlink.com 1.10,2013-06-11 08:43:00,
2013-06-11 04:58:00,70.4,67.0,29.80,SSE,168,5.0,-999.0,89,-99.99,,,0.00,weatherlink.com 1.10,2013-06-11 08:58:00,
2013-06-11 05:13:00,70.4,67.0,29.80,SSE,148,0.0,-999.0,89,-99.99,,,0.00,weatherlink.com 1.10,2013-06-11 09:13:00,
2013-06-11 05:28:00,70.3,67.0,29.79,SW,219,0.0,-999.0,89,-99.99,,,0.00,weatherlink.com 1.10,2013-06-11 09:28:00,
2013-06-11 05:43:00,70.3,67.0,29.79,South,175,0.0,-999.0,89,-99.99,,,0.00,weatherlink.com 1.10,2013-06-11 09:43:00,
2013-06-11 05:58:00,70.1,67.0,29.79,SSW,205,0.0,-999.0,89,-99.99,,,0.00,weatherlink.com 1.10,2013-06-11 09:58:00,
2013-06-11 06:13:00,70.1,67.0,29.79,SE,130,0.0,-999.0,90,-99.99,,,0.00,weatherlink.com 1.10,2013-06-11 10:13:00,
2013-06-11 06:28:00,69.9,67.0,29.79,ESE,110,0.0,-999.0,90,-99.99,,,0.00,weatherlink.com 1.10,2013-06-11 10:28:00,
2013-06-11 06:43:00,69.9,67.0,29.79,SE,140,0.0,-999.0,90,-99.99,,,0.00,weatherlink.com 1.10,2013-06-11 10:43:00,
2013-06-11 06:58:00,70.3,67.0,29.79,ESE,107,0.0,-999.0,90,-99.99,,,0.00,weatherlink.com 1.10,2013-06-11 10:58:00,
2013-06-11 07:13:00,70.4,67.0,29.78,SSW,198,6.0,-999.0,90,-99.99,,,0.00,weatherlink.com 1.10,2013-06-11 11:13:00,
2013-06-11 07:28:00,70.6,67.0,29.79,SW,233,0.0,-999.0,89,-99.99,,,0.00,weatherlink.com 1.10,2013-06-11 11:28:00,
2013-06-11 07:43:00,70.9,67.0,29.79,SE,144,0.0,-999.0,88,-99.99,,,0.00,weatherlink.com 1.10,2013-06-11 11:43:00,
2013-06-11 07:58:00,71.8,68.0,29.81,South,184,3.0,-999.0,87,-99.99,,,0.00,weatherlink.com 1.10,2013-06-11 11:58:00,
2013-06-11 08:13:00,72.1,68.0,29.81,SSE,168,0.0,-999.0,87,-99.99,,,0.00,weatherlink.com 1.10,2013-06-11 12:13:00,
2013-06-11 08:28:00,71.8,68.0,29.82,South,174,0.0,-999.0,86,-99.99,,,0.00,weatherlink.com 1.10,2013-06-11 12:28:00,
2013-06-11 08:43:00,72.7,68.0,29.82,South,181,0.0,-999.0,85,-99.99,,,0.00,weatherlink.com 1.10,2013-06-11 12:43:00,
2013-06-11 08:58:00,73.3,68.0,29.82,South,186,0.0,-999.0,83,-99.99,,,0.00,weatherlink.com 1.10,2013-06-11 12:58:00,
2013-06-11 09:13:00,73.7,68.0,29.82,SSW,212,0.0,-999.0,82,-99.99,,,0.00,weatherlink.com 1.10,2013-06-11 13:13:00,
2013-06-11 09:28:00,74.4,68.0,29.82,SSW,198,0.0,-999.0,79,-99.99,,,0.00,weatherlink.com 1.10,2013-06-11 13:28:00,
2013-06-11 09:43:00,75.3,68.0,29.82,SSE,164,0.0,-999.0,79,-99.99,,,0.00,weatherlink.com 1.10,2013-06-11 13:43:00,
2013-06-11 09:58:00,76.0,68.0,29.81,ESE,103,0.0,-999.0,76,-99.99,,,0.00,weatherlink.com 1.10,2013-06-11 13:58:00,
2013-06-11 10:13:00,76.1,67.0,29.82,SSW,212,0.0,-999.0,74,-99.99,,,0.00,weatherlink.com 1.10,2013-06-11 14:13:00,
2013-06-11 10:28:00,76.7,67.0,29.81,SSW,202,0.0,-999.0,72,-99.99,,,0.00,weatherlink.com 1.10,2013-06-11 14:28:00,
2013-06-11 10:43:00,76.8,69.0,29.81,SSW,195,7.0,-999.0,76,-99.99,,,0.00,weatherlink.com 1.10,2013-06-11 14:43:00,
2013-06-11 10:58:00,77.7,66.0,29.81,South,174,3.0,-999.0,68,-99.99,,,0.00,weatherlink.com 1.10,2013-06-11 14:58:00,
2013-06-11 11:14:00,79.2,67.0,29.81,SE,144,2.0,-999.0,66,-99.99,,,0.00,weatherlink.com 1.10,2013-06-11 15:14:00,
2013-06-11 11:29:00,79.6,65.0,29.81,SSE,167,0.0,-999.0,62,-99.99,,,0.00,weatherlink.com 1.10,2013-06-11 15:29:00,
2013-06-11 11:44:00,80.1,67.0,29.81,South,191,2.0,-999.0,64,-99.99,,,0.00,weatherlink.com 1.10,2013-06-11 15:44:00,
2013-06-11 11:59:00,80.3,66.0,29.81,SSW,200,2.0,-999.0,62,-99.99,,,0.00,weatherlink.com 1.10,2013-06-11 15:59:00,
2013-06-11 12:14:00,80.3,68.0,29.82,SSW,202,0.0,-999.0,66,-99.99,,,0.00,weatherlink.com 1.10,2013-06-11 16:14:00,
2013-06-11 12:29:00,81.6,67.0,29.81,SE,144,0.0,-999.0,62,-99.99,,,0.00,weatherlink.com 1.10,2013-06-11 16:29:00,
2013-06-11 12:44:00,80.5,65.0,29.81,ESE,109,0.0,-999.0,59,-99.99,,,0.00,weatherlink.com 1.10,2013-06-11 16:44:00,
2013-06-11 12:59:00,81.2,66.0,29.81,WSW,256,0.0,-999.0,61,-99.99,,,0.00,weatherlink.com 1.10,2013-06-11 16:59:00,
2013-06-11 13:14:00,81.1,-99.9,29.80,SSE,161,0.0,-999.0,-999,-99.99,,,0.00,weatherlink.com 1.10,2013-06-11 17:14:00,
2013-06-11 13:29:00,82.4,68.0,29.79,SE,141,0.0,-999.0,62,-99.99,,,0.00,weatherlink.com 1.10,2013-06-11 17:29:00,
2013-06-11 13:44:00,83.2,67.0,29.79,SSE,152,0.0,-999.0,59,-99.99,,,0.00,weatherlink.com 1.10,2013-06-11 17:44:00,
2013-06-11 13:59:00,83.4,65.0,29.79,South,174,0.0,-999.0,54,-99.99,,,0.00,weatherlink.com 1.10,2013-06-11 17:59:00,
2013-06-11 14:14:00,83.8,65.0,29.79,SSE,151,0.0,-999.0,54,-99.99,,,0.00,weatherlink.com 1.10,2013-06-11 18:14:00,
2013-06-11 14:29:00,83.8,65.0,29.79,SW,220,0.0,-999.0,54,-99.99,,,0.00,weatherlink.com 1.10,2013-06-11 18:29:00,
2013-06-11 14:44:00,84.0,66.0,29.79,West,281,0.0,-999.0,55,-99.99,,,0.00,weatherlink.com 1.10,2013-06-11 18:44:00,
2013-06-11 14:59:00,83.6,66.0,29.79,ESE,106,2.0,-999.0,55,-99.99,,,0.00,weatherlink.com 1.10,2013-06-11 18:59:00,
2013-06-11 15:14:00,83.8,63.0,29.79,South,174,0.0,-999.0,50,-99.99,,,0.00,weatherlink.com 1.10,2013-06-11 19:14:00,
2013-06-11 15:29:00,83.8,65.0,29.79,South,179,0.0,-999.0,53,-99.99,,,0.00,weatherlink.com 1.10,2013-06-11 19:29:00,
2013-06-11 15:44:00,84.9,64.0,29.78,East,95,0.0,-999.0,50,-99.99,,,0.00,weatherlink.com 1.10,2013-06-11 19:44:00,
2013-06-11 15:59:00,83.4,66.0,29.79,SE,136,0.0,-999.0,56,-99.99,,,0.00,weatherlink.com 1.10,2013-06-11 19:59:00,
2013-06-11 16:14:00,83.6,67.0,29.79,South,174,0.0,-999.0,58,-99.99,,,0.00,weatherlink.com 1.10,2013-06-11 20:14:00,
2013-06-11 16:29:00,83.2,-99.9,29.79,South,174,0.0,-999.0,-999,-99.99,,,0.00,weatherlink.com 1.10,2013-06-11 20:29:00,
2013-06-11 16:44:00,83.0,66.0,29.79,SSE,168,0.0,-999.0,56,-99.99,,,0.00,weatherlink.com 1.10,2013-06-11 20:44:00,
2013-06-11 16:59:00,82.4,67.0,29.78,South,182,0.0,-999.0,59,-99.99,,,0.00,weatherlink.com 1.10,2013-06-11 20:59:00,
2013-06-11 17:14:00,82.8,67.0,29.78,South,182,0.0,-999.0,59,-99.99,,,0.00,weatherlink.com 1.10,2013-06-11 21:14:00,
2013-06-11 17:29:00,84.1,67.0,29.77,SSE,162,0.0,-999.0,57,-99.99,,,0.00,weatherlink.com 1.10,2013-06-11 21:29:00,
2013-06-11 17:44:00,84.1,67.0,29.77,SSW,213,0.0,-999.0,56,-99.99,,,0.00,weatherlink.com 1.10,2013-06-11 21:44:00,
2013-06-11 17:59:00,84.1,65.0,29.77,WSW,239,0.0,-999.0,53,-99.99,,,0.00,weatherlink.com 1.10,2013-06-11 21:59:00,
2013-06-11 18:14:00,84.5,65.0,29.77,SSW,212,0.0,-999.0,53,-99.99,,,0.00,weatherlink.com 1.10,2013-06-11 22:14:00,
2013-06-11 18:29:00,84.3,65.0,29.77,South,179,0.0,-999.0,53,-99.99,,,0.00,weatherlink.com 1.10,2013-06-11 22:29:00,
2013-06-11 18:44:00,84.3,66.0,29.77,South,171,0.0,-999.0,54,-99.99,,,0.00,weatherlink.com 1.10,2013-06-11 22:44:00,
2013-06-11 18:59:00,84.5,65.0,29.77,South,171,0.0,-999.0,53,-99.99,,,0.00,weatherlink.com 1.10,2013-06-11 22:59:00,
2013-06-11 19:14:00,83.8,67.0,29.77,SE,138,0.0,-999.0,57,-99.99,,,0.00,weatherlink.com 1.10,2013-06-11 23:14:00,
2013-06-11 19:29:00,82.6,68.0,29.77,SE,138,0.0,-999.0,61,-99.99,,,0.00,weatherlink.com 1.10,2013-06-11 23:29:00,
2013-06-11 19:44:00,81.4,68.0,29.78,SE,138,0.0,-999.0,63,-99.99,,,0.00,weatherlink.com 1.10,2013-06-11 23:44:00,
2013-06-11 19:59:00,80.1,68.0,29.78,SE,138,0.0,-999.0,66,-99.99,,,0.00,weatherlink.com 1.10,2013-06-11 23:59:00,
2013-06-11 20:14:00,79.2,68.0,29.78,SE,138,0.0,-999.0,68,-99.99,,,0.00,weatherlink.com 1.10,2013-06-12 00:14:00,
2013-06-11 20:29:00,77.9,68.0,29.78,SE,138,0.0,-999.0,71,-99.99,,,0.00,weatherlink.com 1.10,2013-06-12 00:29:00,
2013-06-11 20:44:00,76.5,68.0,29.78,SE,138,0.0,-999.0,74,-99.99,,,0.00,weatherlink.com 1.10,2013-06-12 00:44:00,
2013-06-11 20:59:00,75.3,68.0,29.78,SE,138,0.0,-999.0,77,-99.99,,,0.00,weatherlink.com 1.10,2013-06-12 00:59:00,
2013-06-11 21:14:00,74.0,66.0,29.79,SE,138,0.0,-999.0,77,-99.99,,,0.00,weatherlink.com 1.10,2013-06-12 01:14:00,
2013-06-11 21:29:00,73.5,66.0,29.79,SE,138,0.0,-999.0,78,-99.99,,,0.00,weatherlink.com 1.10,2013-06-12 01:29:00,
2013-06-11 21:44:00,73.0,66.0,29.80,SE,138,0.0,-999.0,79,-99.99,,,0.00,weatherlink.com 1.10,2013-06-12 01:44:00,
2013-06-11 21:59:00,72.3,67.0,29.80,SE,138,0.0,-999.0,83,-99.99,,,0.00,weatherlink.com 1.10,2013-06-12 01:59:00,
2013-06-11 22:14:00,72.0,67.0,29.81,SE,138,0.0,-999.0,83,-99.99,,,0.00,weatherlink.com 1.10,2013-06-12 02:14:00,
2013-06-11 22:29:00,71.8,66.0,29.81,SE,138,0.0,-999.0,83,-99.99,,,0.00,weatherlink.com 1.10,2013-06-12 02:29:00,
2013-06-11 22:44:00,71.6,67.0,29.82,SE,138,0.0,-999.0,84,-99.99,,,0.00,weatherlink.com 1.10,2013-06-12 02:44:00,
2013-06-11 22:59:00,71.5,67.0,29.82,SE,138,0.0,-999.0,84,-99.99,,,0.00,weatherlink.com 1.10,2013-06-12 02:59:00,
2013-06-11 23:14:00,70.9,66.0,29.82,SE,138,0.0,-999.0,85,-99.99,,,0.00,weatherlink.com 1.10,2013-06-12 03:14:00,
2013-06-11 23:29:00,70.6,66.0,29.82,SE,138,0.0,-999.0,86,-99.99,,,0.00,weatherlink.com 1.10,2013-06-12 03:29:00,
2013-06-11 23:44:00,70.3,66.0,29.82,SE,138,0.0,-999.0,87,-99.99,,,0.00,weatherlink.com 1.10,2013-06-12 03:44:00,
2013-06-11 23:59:00,70.1,66.0,29.82,SE,138,0.0,-999.0,87,-99.99,,,0.00,weatherlink.com 1.10,2013-06-12 03:59:00,